Delta Virtual Airport Information Service

Amsterdam Schiphol Airport

ICAO: EHAM Country: Netherlands
Latitude: 52.3086 Longitude: 4.76389
Latest Arrival : BAW426 (1) (EGLL-EHAM) Latest Departure : EZY1832 (2) (EHAM-EGCC)


WX CaptureLIVE
Data provided by noaa.gov | Fetched at 01:05:50

METAR : EHAM 120555Z 23007KT 190V270 CAVOK 11/08 Q1010 NOSIG

TAF : EHAM 120535Z 1206/1312 25010KT CAVOK BECMG 1213/1216 31005KT BECMG 1218/1221 08006KT PROB30 TEMPO 1219/1222 7000 -SHRA SCT020CB BECMG 1309/1312 05010KT


Runway Data for EHAM
Data provided by openaviationdata.com

Runway ID Mag Var Hdg Length Elevation Surface ILS Freq ILS Id ILS Slope
4 -1 42° 6619 ft -11 ft Asphalt -- -- --
6 -1 59° 11429 ft -11 ft Asphalt 110.55 KAG 3
9 -1 88° 11329 ft -11 ft Asphalt -- -- --
18L -1 184° 11155 ft -11 ft Asphalt -- -- --
18R -1 184° 12448 ft -11 ft Asphalt 110.1 VPB 3
18C -1 184° 10812 ft -11 ft Asphalt 109.5 SP 3
22 -1 222° 6619 ft -11 ft Asphalt 109.15 SCH 3
24 -1 239° 11429 ft -11 ft Asphalt -- -- --
27 -1 268° 11329 ft -11 ft Asphalt 111.55 0
36L -1 12448 ft -11 ft Asphalt -- -- --
36R -1 11155 ft -11 ft Asphalt 111.95 ABA 3
36C -1 10812 ft -11 ft Asphalt 108.75 SA 3

Amsterdam Schiphol Airport, Netherlands
Use only for reference purposes



Not for navigational purposes.